Wind_Speed
25 22 23 22 19 17 13 12 11 12 11 10 11 12 12 9 7 6 6 6 4 4 6 6 7 9 10 9 8 10 13 16 16 17 18 19 20 21 22 25 26 25 23 23 23 25 26 28 30
28 24 25 23 20 17 15 12 12 13 12 12 12 11 9 8 6 6 5 5 6 8 9 10 11 11 9 7 9 12 15 16 17 19 21 22 22 22 24 26 26 24 23 22 24 26 29 31 33
31 27 27 24 20 16 13 13 13 13 13 13 12 10 9 8 6 6 7 8 9 12 13 13 11 8 7 8 11 13 15 18 19 21 23 24 24 24 26 28 28 25 24 24 26 27 30 32 33
31 30 29 25 21 16 16 16 15 13 14 15 13 11 10 7 6 7 9 12 15 15 14 11 9 8 8 10 12 14 17 19 21 22 25 26 26 26 28 29 29 27 26 26 28 30 34 35 34
33 33 30 25 22 18 19 18 17 15 14 14 13 12 10 8 8 10 13 16 16 15 12 10 10 9 9 10 13 16 18 19 21 25 26 29 29 29 29 30 29 27 27 27 30 35 37 38 44
35 34 30 26 24 22 22 19 18 16 14 14 15 13 11 10 12 15 17 18 16 13 11 11 10 9 8 10 13 15 17 19 22 24 26 29 31 29 30 31 29 28 28 29 33 37 38 41 48
38 36 31 30 28 25 23 21 19 16 15 16 16 14 13 13 15 18 20 18 15 14 13 11 9 7 7 10 12 14 16 19 22 24 26 27 30 31 31 31 31 29 29 30 36 40 40 44 51
37 38 34 33 31 27 24 22 20 17 16 17 17 15 15 16 18 20 20 18 16 14 11 8 6 5 6 9 11 13 15 18 21 24 26 27 29 31 33 32 32 30 29 31 37 42 43 48 55
38 39 35 35 32 29 26 25 23 20 19 19 19 17 17 19 21 21 21 19 15 13 9 6 3 2 4 7 9 12 15 18 21 25 27 28 29 32 33 33 33 30 28 31 37 44 45 50 57
39 38 35 37 34 32 29 27 25 23 21 20 20 19 21 20 22 22 21 20 16 13 10 7 3 0 3 5 8 13 17 19 22 24 26 28 30 31 33 34 34 30 28 32 38 44 47 52 58
38 38 39 39 38 35 31 29 28 25 24 23 21 21 23 24 24 24 23 21 19 16 13 11 7 3 3 5 7 11 16 19 22 24 27 29 30 30 32 35 34 31 28 32 38 44 48 51 56
38 41 42 41 39 36 33 31 30 29 27 27 24 23 25 26 26 25 25 23 21 19 16 14 11 7 5 5 6 9 13 18 19 23 27 30 31 31 32 34 35 33 29 32 38 43 48 50 55
38 42 43 44 42 39 35 33 33 29 29 28 26 25 27 28 27 27 26 25 24 21 19 16 14 12 10 8 8 9 12 19 20 24 30 32 32 32 32 33 34 33 30 31 37 42 46 46 54
39 42 44 46 45 43 39 37 34 30 32 30 29 28 29 30 30 29 27 29 27 23 22 19 17 15 13 13 13 11 14 17 18 22 29 34 31 32 31 31 32 33 31 30 35 40 44 44 52
42 43 46 48 48 47 44 40 30 35 36 31 30 30 31 32 33 32 32 31 28 26 23 23 19 18 17 17 16 15 17 17 17 22 25 30 31 31 31 29 31 32 31 29 33 38 42 41 48
43 45 47 46 50 51 48 39 34 38 35 33 33 33 33 34 35 36 35 34 31 29 28 25 23 22 21 20 20 17 17 19 20 21 25 29 31 31 30 29 30 31 31 27 30 35 39 39 44
45 47 46 45 50 53 53 42 39 41 38 36 34 34 34 33 34 36 37 36 34 33 30 29 27 26 24 23 23 20 19 19 20 23 26 32 29 29 29 29 28 30 30 26 27 32 36 38 39
45 44 41 43 46 52 54 49 45 45 43 41 37 34 35 34 35 38 39 38 37 35 33 31 29 28 27 25 26 22 19 20 22 22 27 30 28 28 27 26 27 28 29 26 24 28 31 33 33
44 44 44 43 49 53 56 54 49 50 46 45 40 37 36 36 38 38 38 39 38 36 34 32 32 31 29 28 26 25 23 22 22 22 26 26 30 29 26 26 25 24 26 27 22 24 28 29 27
45 48 46 46 50 53 56 56 51 53 50 46 43 42 38 37 38 38 37 36 35 37 36 35 33 32 31 30 27 26 25 23 22 25 26 26 30 28 26 23 22 22 23 26 22 20 23 25 25
47 45 47 47 47 50 53 58 54 52 52 50 47 44 41 38 36 37 36 36 36 35 35 35 35 34 33 31 27 27 26 25 24 25 27 28 27 26 23 22 21 20 21 23 24 18 18 21 21
49 47 47 50 50 51 52 60 56 52 53 50 48 48 45 43 41 40 38 36 34 34 36 36 34 33 33 30 27 29 27 26 26 26 27 27 26 24 23 22 20 18 18 20 23 19 16 17 18
48 47 48 49 53 55 53 59 55 52 52 48 47 49 48 48 46 44 42 39 39 38 37 36 35 34 33 31 30 30 29 28 27 26 26 25 24 23 21 20 19 18 16 17 20 20 15 13 14
51 47 49 49 54 58 53 53 62 49 48 45 46 48 50 49 49 47 46 43 42 42 41 39 37 35 33 31 31 31 30 29 28 27 25 25 24 23 21 20 18 17 17 14 17 19 16 13 10
60 55 54 55 56 54 54 56 61 50 43 40 41 47 47 47 47 47 46 44 42 41 42 42 40 37 35 34 33 33 32 31 29 28 26 25 24 23 22 20 18 16 16 16 15 19 18 13 11
67 64 59 59 58 57 57 50 52 49 41 38 40 43 44 43 43 44 46 46 44 43 43 43 42 40 38 37 36 35 34 32 30 28 27 25 24 23 22 21 18 16 15 16 14 16 18 15 11
67 66 57 56 55 54 53 50 45 42 40 40 39 47 44 41 39 41 42 42 42 42 41 41 41 41 40 40 40 39 36 34 32 29 27 26 25 24 23 21 17 17 16 16 15 14 16 16 13
70 64 61 57 56 53 48 46 41 36 34 35 37 40 46 47 43 41 39 39 40 40 40 40 39 40 41 41 40 38 37 34 31 29 28 28 27 24 22 21 18 17 16 16 15 15 14 17 15
75 74 69 62 57 53 50 42 38 32 29 28 28 34 37 40 41 42 44 42 38 36 36 37 37 37 37 38 37 37 36 34 32 31 29 28 26 24 22 20 18 18 16 16 14 14 13 17 18
69 68 68 68 64 61 57 50 42 39 31 26 22 24 33 34 36 36 37 39 41 42 41 40 38 37 37 38 37 36 35 35 33 32 30 28 25 24 22 19 18 17 16 16 14 14 14 19 25
Wind_Direction
227 233 218 210 213 217 227 244 226 215 204 191 192 186 186 185 172 176 175 186 177 131 116 118 112 99 78 61 45 44 37 35 27 21 14 7 2 357 353 348 344 341 336 332 327 324 322 318 314
226 229 214 209 210 223 238 233 219 204 192 189 194 190 193 197 170 177 188 180 160 143 128 120 112 92 80 69 59 49 42 36 29 24 21 15 9 359 351 350 347 342 337 334 332 328 325 322 319
225 224 213 210 209 226 219 215 208 192 187 193 201 193 200 202 172 181 171 159 149 133 124 118 104 99 89 75 60 49 42 34 27 21 19 15 8 359 355 353 348 345 342 342 337 332 331 326 326
225 216 209 207 213 216 206 208 201 189 194 200 207 196 204 196 176 174 162 154 138 131 127 119 116 106 89 68 54 44 37 31 27 22 18 12 7 1 357 355 350 349 345 341 339 335 332 331 329
227 210 206 209 212 204 206 207 204 197 202 210 213 200 204 186 169 168 158 147 141 135 132 132 126 103 77 59 50 43 37 31 28 24 18 13 7 3 358 355 352 348 344 341 339 337 334 333 333
225 210 205 210 209 205 209 209 211 205 208 216 220 209 197 182 170 166 158 150 144 140 139 132 118 96 77 60 47 41 32 26 24 18 14 12 8 2 358 355 352 347 342 342 341 338 335 331 330
224 212 203 209 209 204 210 213 217 213 214 220 220 211 194 184 169 166 161 154 149 145 142 132 120 102 72 53 42 34 27 22 20 16 10 9 8 4 360 355 351 346 343 342 339 340 332 332 331
224 213 205 210 211 205 208 214 218 216 215 225 223 210 197 181 175 173 166 160 157 154 151 140 124 89 52 39 34 28 21 16 14 13 9 7 7 5 1 354 353 347 342 340 339 339 338 335 335
223 215 206 212 215 210 207 211 214 215 215 220 225 208 203 183 180 179 175 172 170 169 168 159 132 72 29 23 21 21 19 13 9 7 7 6 4 3 1 355 353 346 340 339 341 342 339 338 341
223 216 214 215 217 216 210 213 214 214 216 217 219 211 207 195 187 185 185 184 186 187 195 198 201 286 352 359 5 10 11 9 7 3 3 3 1 360 360 357 354 347 339 340 344 345 343 343 344
222 216 219 217 219 219 217 216 215 213 214 221 218 217 210 202 195 190 193 195 201 205 213 224 229 236 313 335 352 2 10 6 2 3 3 1 358 356 358 357 353 347 340 342 346 348 348 347 347
223 219 221 220 221 222 220 219 220 216 215 217 216 217 214 212 204 197 200 204 209 217 224 233 239 239 269 300 327 351 2 2 359 356 359 359 355 354 357 356 353 349 344 343 347 351 353 353 353
225 222 222 222 221 224 224 223 223 222 222 218 217 215 216 217 213 206 206 210 214 221 231 238 242 246 256 278 299 318 338 352 354 355 354 354 354 352 354 354 353 352 349 345 348 354 358 360 2
231 227 223 225 224 223 223 225 225 225 228 221 218 217 218 218 218 215 212 217 221 224 233 241 246 251 254 266 279 291 320 337 342 350 341 341 349 349 352 352 354 355 352 347 349 357 1 4 6
238 231 226 225 229 226 224 224 221 227 228 223 222 217 219 219 218 220 220 222 224 227 233 239 244 251 258 264 273 288 302 319 329 338 342 338 342 346 350 350 354 356 355 349 351 358 4 7 10
240 234 229 227 230 233 230 220 221 229 230 227 221 222 219 220 219 223 224 225 226 229 233 240 243 251 257 264 271 282 296 313 324 332 336 338 336 343 346 349 352 355 356 350 352 358 5 12 14
239 236 235 230 231 233 235 225 225 228 230 229 225 223 225 223 223 225 226 228 229 232 234 241 245 252 258 263 269 277 291 305 315 321 326 330 331 339 343 347 351 353 356 353 352 359 8 12 20
245 244 243 237 233 235 236 232 228 233 227 230 225 222 226 228 223 226 229 231 232 235 238 243 250 254 258 263 269 277 288 297 306 315 320 324 324 333 339 343 347 350 355 356 352 359 8 12 24
246 243 241 239 237 234 236 235 232 234 231 230 231 224 221 226 230 228 228 231 234 239 243 247 250 255 260 264 270 275 278 288 298 306 312 320 323 324 330 339 343 347 352 357 351 355 5 16 23
242 240 239 239 240 238 236 236 233 236 235 235 234 233 226 222 230 234 234 234 235 236 240 245 251 255 258 262 264 268 273 281 288 294 298 302 309 316 323 332 337 344 348 355 351 352 1 9 21
244 247 244 242 242 244 240 235 235 235 237 236 238 240 237 235 234 236 238 238 237 239 241 242 245 250 256 260 261 265 269 272 277 283 289 295 305 312 319 326 332 340 344 351 352 347 355 3 11
238 239 243 240 241 242 242 238 235 237 238 237 238 241 243 241 238 239 238 241 243 245 243 243 244 248 251 255 257 261 267 271 276 281 288 296 302 309 315 320 328 332 339 345 349 346 348 355 2
239 234 234 233 238 238 239 244 229 237 240 242 240 239 239 241 241 241 241 239 241 244 247 250 253 255 257 259 260 263 265 269 273 279 284 291 296 301 307 314 320 324 330 339 341 348 340 342 354
239 237 238 238 236 240 237 245 232 231 240 243 244 243 242 241 243 244 245 244 243 245 247 249 250 252 254 256 257 260 264 266 270 275 279 284 289 296 301 307 313 317 318 329 330 339 341 332 340
233 231 231 233 235 244 241 240 240 236 236 240 244 245 244 243 244 245 246 247 245 244 246 248 250 250 251 251 254 256 260 264 268 271 275 279 285 290 294 299 303 307 315 315 324 331 337 329 328
233 233 232 234 236 238 243 242 240 243 246 242 243 247 247 245 242 242 243 244 244 245 245 245 247 247 248 249 251 254 257 260 264 267 271 275 280 283 287 292 297 301 307 309 314 326 334 329 326
231 230 233 235 238 242 244 243 242 246 244 244 239 240 244 245 243 243 243 243 243 244 246 246 245 246 248 249 251 253 255 258 261 266 269 271 272 276 280 285 291 297 300 303 310 316 333 336 326
232 235 233 233 237 240 241 239 239 242 246 243 242 240 239 242 245 245 244 241 240 241 244 245 246 244 244 246 249 251 253 257 261 263 264 266 269 272 277 283 289 291 295 300 308 315 330 336 337
231 229 229 231 234 239 241 239 235 237 239 234 232 234 235 238 239 241 243 243 242 239 238 237 239 242 246 247 247 248 250 251 253 255 257 261 265 269 274 280 286 289 294 296 303 310 313 328 333
232 232 236 235 233 233 232 230 230 233 235 241 241 231 234 236 237 237 236 236 236 235 234 235 237 237 240 242 244 245 247 247 249 250 253 258 262 264 270 275 277 283 291 293 295 299 306 331 333
Height
5802 5803 5805 5807 5812 5813 5815 5817 5817 5818 5820 5821 5822 5823 5824 5824 5826 5830 5828 5829 5829 5830 5830 5831 5833 5833 5833 5833 5834 5833 5832 5829 5828 5825 5823 5822 5820 5818 5815 5812 5808 5805 5802 5798 5795 5792 5789 5786 5783
5798 5800 5802 5804 5809 5811 5813 5815 5815 5817 5819 5820 5821 5823 5824 5824 5825 5827 5828 5828 5829 5830 5831 5832 5833 5833 5834 5834 5834 5833 5832 5829 5828 5826 5823 5821 5819 5816 5814 5811 5806 5803 5800 5796 5793 5789 5786 5783 5778
5794 5796 5800 5802 5806 5809 5811 5812 5814 5816 5818 5819 5821 5822 5822 5823 5825 5826 5827 5828 5829 5830 5831 5833 5833 5834 5835 5835 5834 5833 5831 5829 5827 5826 5823 5821 5818 5816 5813 5809 5804 5801 5798 5794 5790 5786 5782 5777 5771
5790 5793 5797 5800 5803 5806 5809 5811 5813 5815 5817 5818 5820 5821 5821 5822 5823 5824 5826 5827 5829 5830 5832 5833 5834 5835 5835 5835 5834 5833 5831 5829 5827 5825 5823 5820 5818 5815 5811 5807 5803 5799 5796 5791 5787 5782 5777 5771 5765
5786 5789 5793 5797 5800 5804 5807 5809 5811 5814 5816 5816 5818 5820 5819 5820 5822 5823 5825 5827 5829 5831 5832 5834 5835 5836 5836 5835 5834 5832 5831 5829 5827 5824 5823 5821 5818 5814 5810 5806 5802 5798 5793 5789 5784 5779 5772 5766 5758
5782 5785 5790 5794 5797 5800 5804 5806 5809 5812 5814 5816 5817 5818 5818 5819 5821 5823 5826 5828 5830 5832 5833 5835 5836 5836 5836 5834 5833 5832 5831 5829 5826 5825 5823 5821 5817 5814 5810 5805 5800 5796 5792 5787 5782 5776 5769 5761 5752
5779 5781 5786 5790 5793 5797 5801 5804 5806 5809 5812 5815 5816 5817 5818 5818 5821 5824 5826 5828 5830 5832 5834 5835 5836 5836 5835 5834 5833 5832 5831 5829 5826 5825 5823 5821 5817 5813 5808 5804 5799 5794 5790 5785 5779 5772 5764 5756 5745
5775 5777 5782 5786 5789 5794 5798 5801 5804 5806 5810 5812 5814 5816 5817 5818 5821 5823 5826 5828 5830 5832 5834 5835 5836 5836 5835 5834 5833 5832 5831 5829 5826 5824 5823 5820 5816 5811 5807 5802 5797 5792 5788 5783 5777 5770 5762 5752 5742
5769 5774 5779 5782 5786 5791 5794 5797 5800 5804 5807 5810 5812 5814 5815 5817 5820 5822 5825 5827 5830 5832 5834 5835 5836 5836 5835 5834 5833 5832 5830 5828 5826 5824 5822 5818 5814 5809 5805 5801 5796 5791 5786 5781 5774 5767 5758 5749 5737
5764 5772 5776 5778 5781 5786 5790 5793 5796 5800 5803 5806 5809 5812 5813 5815 5818 5821 5824 5826 5829 5831 5832 5833 5834 5835 5834 5833 5833 5831 5830 5828 5826 5824 5821 5817 5813 5809 5805 5800 5795 5790 5785 5779 5773 5765 5756 5745 5732
5761 5769 5770 5773 5775 5780 5785 5788 5791 5796 5800 5802 5806 5809 5811 5813 5816 5818 5821 5824 5827 5829 5830 5832 5833 5833 5833 5832 5832 5831 5830 5828 5826 5823 5821 5817 5813 5808 5804 5800 5796 5790 5785 5779 5772 5764 5754 5743 5730
5755 5760 5763 5768 5771 5775 5779 5783 5787 5791 5794 5797 5801 5805 5808 5810 5813 5816 5819 5822 5825 5827 5828 5830 5831 5831 5831 5831 5830 5830 5829 5827 5825 5822 5820 5816 5812 5808 5804 5800 5795 5790 5784 5778 5771 5764 5753 5742 5729
5749 5753 5757 5761 5765 5769 5774 5778 5781 5786 5789 5793 5797 5800 5804 5807 5810 5813 5816 5819 5821 5824 5826 5827 5828 5828 5829 5829 5828 5828 5827 5826 5824 5822 5819 5816 5812 5808 5804 5799 5795 5789 5783 5778 5771 5764 5754 5744 5732
5742 5745 5751 5755 5759 5762 5767 5770 5776 5781 5783 5787 5791 5795 5799 5803 5806 5810 5813 5815 5818 5820 5822 5824 5825 5826 5826 5826 5826 5826 5825 5824 5823 5820 5818 5815 5811 5807 5803 5799 5794 5788 5782 5777 5771 5764 5755 5746 5735
5735 5737 5742 5749 5752 5755 5759 5763 5775 5771 5776 5783 5787 5789 5793 5797 5802 5804 5807 5811 5814 5816 5818 5820 5822 5823 5824 5823 5823 5824 5824 5823 5821 5819 5816 5813 5810 5806 5803 5798 5793 5787 5782 5777 5772 5766 5757 5748 5739
5726 5729 5734 5742 5745 5749 5752 5762 5767 5764 5771 5776 5780 5784 5788 5791 5796 5798 5802 5805 5809 5811 5813 5816 5818 5819 5820 5820 5820 5821 5821 5820 5819 5817 5814 5811 5809 5805 5802 5797 5792 5787 5782 5777 5772 5767 5759 5751 5744
5718 5721 5727 5733 5735 5739 5743 5755 5759 5759 5764 5769 5775 5779 5783 5787 5791 5793 5796 5799 5803 5805 5808 5810 5813 5815 5816 5817 5817 5818 5818 5817 5816 5814 5812 5810 5807 5803 5801 5796 5792 5787 5782 5777 5773 5768 5762 5754 5749
5710 5714 5718 5723 5728 5729 5734 5745 5751 5750 5757 5761 5767 5773 5778 5782 5785 5786 5790 5793 5797 5800 5803 5805 5808 5809 5811 5812 5812 5814 5814 5814 5813 5812 5810 5808 5805 5802 5799 5795 5791 5787 5781 5777 5773 5770 5765 5757 5753
5698 5703 5708 5713 5716 5719 5724 5733 5742 5743 5749 5754 5760 5766 5771 5775 5776 5781 5785 5788 5792 5795 5797 5799 5802 5803 5806 5807 5808 5809 5810 5810 5810 5809 5807 5805 5803 5800 5797 5794 5790 5787 5781 5777 5774 5771 5767 5762 5756
5687 5693 5699 5702 5705 5709 5713 5720 5730 5735 5743 5749 5753 5758 5764 5769 5770 5774 5778 5782 5786 5788 5791 5794 5796 5799 5800 5802 5804 5805 5806 5806 5807 5805 5804 5802 5800 5797 5795 5792 5789 5786 5782 5777 5775 5772 5769 5765 5760
5681 5686 5691 5693 5695 5698 5703 5709 5719 5726 5732 5740 5746 5751 5756 5762 5766 5769 5772 5776 5779 5783 5785 5787 5790 5792 5795 5797 5800 5800 5801 5802 5802 5801 5800 5798 5797 5795 5793 5790 5787 5784 5781 5777 5774 5772 5769 5766 5763
5668 5675 5678 5681 5683 5687 5692 5696 5709 5717 5722 5731 5738 5743 5748 5753 5758 5761 5765 5770 5773 5776 5778 5780 5784 5786 5789 5791 5794 5794 5796 5796 5797 5796 5795 5794 5793 5791 5790 5788 5785 5782 5780 5776 5774 5772 5769 5768 5764
5658 5663 5663 5667 5670 5673 5683 5685 5704 5708 5715 5722 5728 5732 5737 5741 5747 5751 5756 5762 5765 5767 5770 5773 5777 5780 5783 5786 5787 5788 5789 5790 5791 5791 5791 5789 5789 5787 5786 5784 5782 5780 5778 5775 5773 5771 5769 5767 5765
5645 5651 5655 5657 5660 5661 5678 5680 5690 5703 5710 5712 5715 5720 5726 5732 5737 5742 5746 5752 5756 5759 5762 5766 5769 5773 5776 5778 5780 5782 5783 5785 5785 5786 5786 5785 5784 5783 5782 5781 5779 5778 5776 5774 5771 5769 5767 5766 5764
5629 5634 5638 5643 5647 5658 5663 5669 5682 5694 5701 5704 5705 5709 5715 5722 5727 5731 5736 5740 5745 5750 5754 5757 5761 5765 5768 5770 5772 5774 5776 5778 5780 5780 5781 5781 5780 5779 5778 5777 5776 5774 5773 5772 5770 5768 5766 5764 5763
5615 5618 5627 5631 5638 5647 5649 5662 5674 5683 5690 5694 5696 5698 5704 5709 5715 5720 5725 5730 5734 5738 5743 5747 5752 5755 5759 5761 5763 5766 5768 5771 5773 5775 5775 5776 5775 5774 5774 5773 5773 5771 5770 5769 5767 5766 5764 5763 5761
5603 5606 5622 5624 5629 5635 5643 5657 5665 5671 5678 5680 5685 5688 5692 5698 5704 5709 5715 5720 5725 5729 5733 5738 5742 5746 5749 5752 5755 5759 5762 5764 5767 5769 5770 5770 5770 5769 5769 5769 5768 5768 5766 5766 5764 5765 5762 5761 5759
5589 5605 5607 5613 5621 5629 5638 5646 5656 5663 5666 5669 5674 5676 5680 5687 5694 5699 5705 5710 5715 5719 5724 5729 5733 5736 5740 5743 5747 5751 5754 5757 5761 5763 5763 5764 5765 5765 5764 5765 5765 5764 5763 5762 5761 5762 5761 5759 5757
5574 5578 5590 5603 5611 5620 5630 5642 5649 5653 5656 5660 5664 5667 5670 5677 5683 5690 5695 5701 5706 5710 5714 5719 5723 5728 5732 5736 5739 5743 5747 5750 5753 5755 5756 5758 5759 5760 5760 5761 5761 5761 5760 5759 5758 5759 5758 5757 5755
5556 5569 5581 5588 5603 5610 5617 5629 5637 5643 5650 5653 5657 5660 5664 5669 5674 5679 5684 5689 5694 5699 5704 5709 5714 5719 5723 5727 5731 5735 5739 5742 5745 5747 5750 5751 5753 5754 5755 5756 5756 5756 5756 5756 5755 5756 5754 5753 5752